Etusivu
METAR-TAF:

METAR-TAF

Lentoasemat :

New Ulm Municipal Airport

New Ulm, Minnesota, Yhdysvallat

Leveyspiiri: 44-19N, Pituuspiiri: 094-30W, korkeus merenpinnasta: 308 m

Tämänhetkinen sää

Tämä raportti tehtiin 16 minuuttia sitten, kello 10.15 UTC
Tuuli 3 kn lännestä/luoteesta
Lämpötila -21°C
Kosteus 84%
Ilmanpaine 1037 hPa
Näkyvyys: 16.1 km
Hajanaisia pilviä 8000 ft:n korkeudessa
Pilvistä 9000 ft:n korkeudessa

METAR: KULM 191015Z AUTO 30003KT 10SM SCT080 OVC090 M21/M23 A3061 RMK AO2

Aika: 04:31 (10:31 UTC)


TAF: puuttuu

Säähavainnot ja -ennusteet yli 4000 lentoasemalta (METAR- ja TAF-raportit).

Käytössä olevat sääasemat on merkitty karttaan keltaisilla ja punaisilla pisteillä.

Aseta hiiri pisteen päälle nähdäksesi sääaseman nimen.

Klikkaa sitten nähdäksesi säähavainnot ja -ennusteet.

Kartan vaihtaminen: klikkaa mustalla rastilla varustettuja vihreitä pisteitä, niin voit zoomata sisään; viivalla varustettua vihreää pistettä, niin voit zoomata ulos tai vihreitä nuolia, niin pääset viereisille kartoille.


METAR-TAF: